When you browse on this site, cookies collect data to enhance your experience and personalize the content and advertising you see.
Visit our Privacy Policy to learn more. By continuing to use the site, you agree to this use of cookies and data.
  • In Latvia
  • List of Countries
  • For 7 days
  • Water Temperature
  • Weather Map
  • Weather Widgets
  • user-avatar
    Login

    Hourly Weather Nashua

    Today, 18 September, Wednesday

    Time Temperature Precipitation Wind Pressure Humidity
    00:00 +14°C° 0.1 mm 1 mps 763 mmHg 90%
    01:00 +14°C° 0.1 mm 1 mps 763 mmHg 92%
    02:00 +13°C° 0 mm 2 mps 763 mmHg 92%
    03:00 +10°C° 0 mm 2 mps 763 mmHg 93%
    04:00 +9°C° 0 mm 2 mps 763 mmHg 93%
    05:00 +9°C° 0 mm 2 mps 764 mmHg 90%
    06:00 +9°C° 0 mm 2 mps 764 mmHg 87%
    07:00 +9°C° 0 mm 2 mps 765 mmHg 85%
    08:00 +11°C° 0 mm 3 mps 765 mmHg 73%
    09:00 +13°C° 0 mm 3 mps 765 mmHg 62%
    10:00 +16°C° 0 mm 3 mps 765 mmHg 51%
    11:00 +17°C° 0 mm 3 mps 765 mmHg 48%
    12:00 +18°C° 0 mm 3 mps 764 mmHg 44%
    13:00 +18°C° 0 mm 3 mps 764 mmHg 41%
    14:00 +18°C° 0 mm 3 mps 764 mmHg 43%
    15:00 +17°C° 0 mm 3 mps 764 mmHg 45%
    16:00 +17°C° 0 mm 2 mps 764 mmHg 47%
    17:00 +14°C° 0 mm 2 mps 765 mmHg 56%
    18:00 +12°C° 0 mm 2 mps 765 mmHg 65%
    19:00 +10°C° 0 mm 1 mps 765 mmHg 74%
    20:00 +9°C° 0 mm 1 mps 766 mmHg 77%
    21:00 +9°C° 0 mm 1 mps 766 mmHg 80%
    22:00 +8°C° 0 mm 1 mps 766 mmHg 83%
    23:00 +8°C° 0 mm 1 mps 766 mmHg 85%

    Tomorrow, 19 September, Thursday

    Time Temperature Precipitation Wind Pressure Humidity
    00:00 +7°C° 0 mm 1 mps 766 mmHg 86%
    01:00 +7°C° 0 mm 1 mps 766 mmHg 88%
    02:00 +7°C° 0 mm 1 mps 766 mmHg 88%
    03:00 +7°C° 0 mm 1 mps 766 mmHg 89%
    04:00 +6°C° 0 mm 1 mps 766 mmHg 89%
    05:00 +7°C° 0 mm 1 mps 766 mmHg 83%
    06:00 +9°C° 0 mm 1 mps 766 mmHg 77%
    07:00 +10°C° 0 mm 1 mps 766 mmHg 70%
    08:00 +13°C° 0 mm 1 mps 766 mmHg 59%
    09:00 +16°C° 0 mm 1 mps 766 mmHg 48%
    10:00 +21°C° 0 mm 1 mps 766 mmHg 36%
    11:00 +22°C° 0 mm 1 mps 766 mmHg 34%
    12:00 +23°C° 0 mm 1 mps 766 mmHg 32%
    13:00 +22°C° 0 mm 0 mps 765 mmHg 30%
    14:00 +22°C° 0 mm 0 mps 765 mmHg 33%
    15:00 +21°C° 0 mm 0 mps 764 mmHg 37%
    16:00 +20°C° 0 mm 0 mps 764 mmHg 40%
    17:00 +17°C° 0 mm 0 mps 764 mmHg 47%
    18:00 +14°C° 0 mm 0 mps 764 mmHg 53%
    19:00 +12°C° 0 mm 1 mps 765 mmHg 60%
    20:00 +12°C° 0 mm 1 mps 764 mmHg 62%
    21:00 +11°C° 0 mm 1 mps 764 mmHg 64%
    22:00 +10°C° 0 mm 1 mps 764 mmHg 66%
    23:00 +10°C° 0 mm 1 mps 763 mmHg 67%

    Day after tomorrow, 20 September, Friday

    Time Temperature Precipitation Wind Pressure Humidity
    00:00 +10°C° 0 mm 1 mps 763 mmHg 69%
    01:00 +10°C° 0 mm 1 mps 763 mmHg 70%
    02:00 +10°C° 0 mm 1 mps 762 mmHg 71%
    03:00 +10°C° 0 mm 1 mps 762 mmHg 72%
    04:00 +10°C° 0 mm 1 mps 762 mmHg 73%
    05:00 +11°C° 0 mm 1 mps 762 mmHg 70%
    06:00 +12°C° 0 mm 1 mps 762 mmHg 68%
    07:00 +13°C° 0 mm 1 mps 762 mmHg 66%
    08:00 +18°C° 0 mm 1 mps 761 mmHg 58%
    09:00 +21°C° 0 mm 1 mps 761 mmHg 50%
    10:00 +24°C° 0 mm 1 mps 761 mmHg 42%
    11:00 +26°C° 0 mm 2 mps 760 mmHg 40%
    12:00 +27°C° 0 mm 2 mps 760 mmHg 38%
    13:00 +29°C° 0 mm 2 mps 759 mmHg 36%
    14:00 +29°C° 0 mm 2 mps 759 mmHg 40%
    15:00 +28°C° 0 mm 2 mps 759 mmHg 45%
    16:00 +28°C° 0 mm 2 mps 759 mmHg 49%
    17:00 +26°C° 0 mm 2 mps 759 mmHg 53%
    18:00 +23°C° 0 mm 2 mps 759 mmHg 57%
    19:00 +20°C° 0 mm 2 mps 760 mmHg 61%
    20:00 +19°C° 0 mm 2 mps 760 mmHg 63%
    21:00 +19°C° 0 mm 2 mps 760 mmHg 65%
    22:00 +18°C° 0 mm 2 mps 760 mmHg 67%
    23:00 +18°C° 0 mm 2 mps 760 mmHg 68%

    21 September, Saturday

    Time Temperature Precipitation Wind Pressure Humidity
    00:00 +18°C° 0 mm 2 mps 760 mmHg 70%
    01:00 +18°C° 0 mm 2 mps 760 mmHg 72%
    02:00 +17°C° 0 mm 2 mps 760 mmHg 75%
    03:00 +17°C° 0 mm 2 mps 761 mmHg 77%
    04:00 +17°C° 0 mm 2 mps 761 mmHg 80%
    05:00 +18°C° 0 mm 2 mps 761 mmHg 79%
    06:00 +18°C° 0 mm 2 mps 761 mmHg 78%
    07:00 +19°C° 0 mm 2 mps 762 mmHg 77%
    08:00 +23°C° 0 mm 2 mps 762 mmHg 70%
    09:00 +25°C° 0 mm 2 mps 762 mmHg 62%
    10:00 +27°C° 0 mm 2 mps 762 mmHg 55%
    11:00 +28°C° 0 mm 2 mps 762 mmHg 52%
    12:00 +29°C° 0 mm 2 mps 762 mmHg 49%
    13:00 +30°C° 0 mm 2 mps 761 mmHg 45%
    14:00 +29°C° 0 mm 2 mps 761 mmHg 48%
    15:00 +29°C° 0 mm 2 mps 761 mmHg 51%
    16:00 +28°C° 0 mm 1 mps 761 mmHg 53%
    17:00 +26°C° 0 mm 1 mps 761 mmHg 62%
    18:00 +23°C° 0 mm 1 mps 761 mmHg 70%
    19:00 +20°C° 0 mm 1 mps 762 mmHg 79%
    20:00 +20°C° 0 mm 1 mps 762 mmHg 83%
    21:00 +19°C° 0 mm 1 mps 762 mmHg 86%
    22:00 +16°C° 0 mm 0 mps 762 mmHg 90%
    23:00 +16°C° 0 mm 0 mps 762 mmHg 91%

    22 September, Sunday

    Time Temperature Precipitation Wind Pressure Humidity
    00:00 +16°C° 0 mm 0 mps 762 mmHg 92%
    01:00 +16°C° 0 mm 0 mps 762 mmHg 93%
    02:00 +15°C° 0 mm 0 mps 762 mmHg 93%
    03:00 +15°C° 0 mm 0 mps 762 mmHg 94%
    04:00 +15°C° 0 mm 0 mps 762 mmHg 94%
    05:00 +16°C° 0 mm 0 mps 762 mmHg 91%
    06:00 +17°C° 0 mm 0 mps 761 mmHg 88%
    07:00 +20°C° 0 mm 1 mps 761 mmHg 86%
    08:00 +23°C° 0 mm 1 mps 761 mmHg 76%
    09:00 +25°C° 0 mm 2 mps 761 mmHg 66%
    10:00 +28°C° 0 mm 2 mps 761 mmHg 56%
    11:00 +29°C° 0 mm 3 mps 760 mmHg 52%
    12:00 +30°C° 0 mm 3 mps 760 mmHg 49%
    13:00 +32°C° 0 mm 4 mps 759 mmHg 45%
    14:00 +30°C° 0 mm 3 mps 758 mmHg 48%
    15:00 +30°C° 0 mm 3 mps 758 mmHg 52%
    16:00 +29°C° 0 mm 3 mps 757 mmHg 55%
    17:00 +27°C° 0 mm 3 mps 757 mmHg 59%
    18:00 +26°C° 0 mm 3 mps 757 mmHg 63%
    19:00 +23°C° 0 mm 4 mps 757 mmHg 67%
    20:00 +22°C° 0 mm 4 mps 757 mmHg 69%
    21:00 +22°C° 0 mm 4 mps 757 mmHg 70%
    22:00 +21°C° 0 mm 3 mps 756 mmHg 72%
    23:00 +21°C° 0 mm 3 mps 756 mmHg 72%

    23 September, Monday

    Time Temperature Precipitation Wind Pressure Humidity
    00:00 +20°C° 0 mm 3 mps 756 mmHg 72%
    01:00 +20°C° 0 mm 3 mps 755 mmHg 73%
    02:00 +20°C° 0 mm 4 mps 755 mmHg 72%
    03:00 +20°C° 0 mm 4 mps 755 mmHg 71%
    04:00 +20°C° 0 mm 4 mps 754 mmHg 71%
    05:00 +21°C° 0 mm 4 mps 754 mmHg 69%
    06:00 +21°C° 0 mm 4 mps 754 mmHg 67%
    07:00 +21°C° 0 mm 4 mps 753 mmHg 65%
    08:00 +21°C° 0.1 mm 4 mps 753 mmHg 68%
    09:00 +22°C° 0.1 mm 4 mps 753 mmHg 70%
    10:00 +22°C° 0.1 mm 3 mps 754 mmHg 72%
    11:00 +21°C° 0.4 mm 3 mps 753 mmHg 79%
    12:00 +20°C° 0.4 mm 3 mps 753 mmHg 87%
    13:00 +20°C° 0.4 mm 4 mps 753 mmHg 94%
    14:00 +20°C° 0.2 mm 3 mps 752 mmHg 91%
    15:00 +21°C° 0.2 mm 3 mps 752 mmHg 89%
    16:00 +22°C° 0.2 mm 3 mps 752 mmHg 86%
    17:00 +21°C° 0 mm 2 mps 752 mmHg 90%
    18:00 +20°C° 0 mm 2 mps 752 mmHg 93%
    19:00 +19°C° 0 mm 2 mps 753 mmHg 97%
    20:00 +19°C° 0 mm 2 mps 753 mmHg 97%
    21:00 +18°C° 0 mm 2 mps 753 mmHg 97%
    22:00 +18°C° 0 mm 2 mps 753 mmHg 97%
    23:00 +18°C° 0.1 mm 2 mps 752 mmHg 96%
    Show more